Regional Weather Roundup
Issued by NWS

Home | Current Version | Previous Version | Graphics & Text | Print | Product List | Glossary On
Versions: 1 2 3 4 5 6 7 8 9 10 11 12 13 14 15 16 17 18 19 20 21 22 23 24 25 26 27 28 29 30 31 32 33 34 35 36 37 38 39 40 41 42 43 44 45 46
000
ASUS45 KSLC 302310
RWRUT

UTAH REGIONAL WEATHER ROUNDUP
NATIONAL WEATHER SERVICE SALT LAKE CITY UT
500 PM MDT SUN AUG 30 2015

UTZ001>011-023>025-310000-

NORTHERN UTAH

CITY           SKY/WX    TMP DP  RH WIND       PRES   REMARKS
BRIGHAM CITY   MOSUNNY   88  32  13 W12       29.93F
HILL AFB       PTSUNNY   83  45  26 VRB5      29.97F
LOGAN          SUNNY     87  38  17 SW13      29.93F
OGDEN          MOSUNNY   85  43  22 W5        29.94S
PROVO AIRPORT  NOT AVBL
SALT LAKE CITY PTSUNNY   87  45  23 N10       29.92F
VERNAL         CLOUDY    79  47  32 SW8       30.05S
WENDOVER       MOSUNNY   86  39  19 SE9       29.93F
HEBER CITY     CLOUDY    86  41  20 W17G23    30.00F
WEST JORDAN    SUNNY     82  46  28 NW12      29.96F

$$

UTZ012>022-026-027-310000-

SOUTHERN/CENTRAL UTAH

CITY           SKY/WX    TMP DP  RH WIND       PRES   REMARKS
BLANDING       CLOUDY    84  43  23 SW10G16   30.17F
BRYCE CANYON   PTSUNNY   72  47  40 SW9       30.24F
CEDAR CITY     PTSUNNY   82  38  20 SW16G23   30.04F
DELTA          CLOUDY    90  37  15 SW16      29.94F
HANKSVILLE     PTSUNNY   90  48  24 SW3       29.94F
MILFORD        CLOUDY    90  41  18 SW25G36   29.98F
MOAB/CYNLANDS  SUNNY     89  47  23 NW10      29.92F
PRICE          CLOUDY    72  55  55 S6        30.08F
ST GEORGE      CLOUDY   100  46  16 W20G26    29.83F HX  96
KANAB          CLOUDY    77  63  61 E13       30.08F

$$

REGIONAL REPORTS     COLORADO/ARIZONA

CITY           SKY/WX    TMP DP  RH WIND       PRES   REMARKS
CRAIG, CO      CLOUDY    77  54  44 CALM      30.09F
GRAND JUNCTION PTSUNNY   88  44  21 SE17      29.98F
RIFLE          PTSUNNY   87  42  20 SE14      30.04F
MONTROSE       PTSUNNY   76  56  49 E14       30.12F
CORTEZ         SUNNY     83  49  30 SW21G32   30.12R
PAGE, AZ       LGT RAIN  76  55  48 S21G26    30.01F
GRAND CANYON   TSTM      62  57  83 SE14      30.20F
KINGMAN        MOSUNNY   96  46  18 SW25G33   29.92F HX  92
FLAGSTAFF      CLOUDY    73  52  47 S9        30.25F

$$

REGIONAL REPORTS    NEVADA/IDAHO/WYOMING

CITY           SKY/WX    TMP DP  RH WIND       PRES   REMARKS
LAS VEGAS, NV  PTSUNNY  100  37  11 SW18G24   29.76F HX  95
ELY            SUNNY     87  26  11 SW16G26   30.05F
ELKO           MOSUNNY   81  28  14 W18G29    30.03S
POCATELLO, ID  SUNNY     80  38  22 W20       29.97F
BURLEY         MOSUNNY   75  36  24 W10       29.97S
EVANSTON, WY   PTSUNNY   74  41  30 S13       30.13S
ROCK SPRINGS   CLOUDY    71  52  50 SW7       30.10F
KEMMERER       PTSUNNY   77  34  20 W23G33    30.12S

$$



USA.gov is the U.S. government's official web portal to all federal, state and local government web resources and services.